www.pogodaiklimat.ru

Погода и климат >> Архив погоды >> Россия >> Якутия >> Крест-Хальджай


ПОГОДА в Крест-Хальджае

  • Прогноз погоды в Крест-Хальджае
  • Монитор погоды в Крест-Хальджае
  • Климат города

АРХИВ ПОГОДЫ в Крест-Хальджае

Время (UTC), дата Ветер
(напр.,м/с)
 
Видим.   Явления Облачность Т
(С)
Тd
(С)
f
(%)
Тe
(С)
Тes
(С)
Комфортность P
(гПа)
Po
(гПа)
Тmin
(С)
Tmax
(С)
R
(мм)
R24
(мм)
S
(см)
18 12.11 СВ 1 н/о н/о -8.6 -9.7 92 -11 -11 1023.5 1007.4
21 12.11 штиль 0 50 км {снег} 10/0
[As op]
-8.5 -10.0 89 -9 -9 1023.1 1008.0 -8.5 0.5 16
00 13.11 штиль 0 50 км 10/0
[As op]
-8.6 -9.7 92 -9 -9 1022.7 1007.7
03 13.11 н/о -7.4 -8.6 91 1022.2 1007.3
06 13.11 штиль 0 10 км слабый снег 10/0 600 м
[As op]
-6.6 -7.8 91 -8 -8 1022.2 1007.3
09 13.11 штиль 0 10 км слабый снег 10/0
[As op]
-7.4 -8.3 93 -8 -8 1023.1 1008.1 -6.5 0.9
12 13.11 ЮЗ 3 н/о н/о -7.3 -8.9 88 -13 -13 1024.5 1008.4 -6.6
15 13.11 ЮЗ 3 н/о н/о -10.7 -12.8 84 -17 -17 1025.8 1009.5
18 13.11 ЮЗ 3 н/о н/о -13.5 -15.9 82 -20 -20 1027.4 1010.9
21 13.11 З 2 10 км слабый снег 10/0
[As op]
-14.4 -16.4 85 -19 -19 1027.3 1011.9 -14.4 0.1 17
00 14.11 ЮЗ 2 10 км слабый снег 10/0
[As op]
-14.9 -16.9 85 -20 -20 1028.0 1012.6
03 14.11 З 2 4000 м снег 10/0 600 м
[As op]
-14.7 -16.7 85 -20 -20 1028.9 1013.4
06 14.11 З 2 10 км слабый снег 10/0 600 м
[As op]
-15.0 -17.0 85 -20 -20 1029.4 1013.9
09 14.11 З 1 50 км {снег} 10/0
[As op]
-17.4 -19.3 85 -20 -20 1029.9 1014.3 -6.7 2
12 14.11 штиль 0 н/о н/о -18.0 -20.0 84 -18 -18 1030.5 1013.6
15 14.11 З 1 н/о н/о -17.9 -19.8 85 -21 -21 1029.1 1012.3
18 14.11 З 2 н/о н/о -18.1 -20.0 85 -24 -24 1027.2 1010.4
21 14.11 З 1 10 км слабый снег 10/0
[As op]
-17.5 -19.5 84 -20 -20 1023.9 1008.4 -18.0 1 21
00 15.11 З 2 4000 м снег 10/0
[As op]
-17.6 -19.5 85 -23 -23 1021.6 1006.1
03 15.11 ЮЗ 3 4000 м снег 10/0 600 м
[As op]
-17.3 -19.2 85 -24 -24 1021.3 1005.8
06 15.11 ЮЗ 3 50 км {снег} 8/0
[Ac trans Ci fib]
-17.0 -19.6 80 -24 -24 1023.0 1007.5
09 15.11 Ю 1 50 км 10/0
[Ci fib]
-21.0 -23.6 80 -24 -24 1025.9 1010.1 -16.9 4
12 15.11 штиль 0 н/о н/о -25.0 -27.3 81 -25 -25 1027.1 1009.8 -17.3
15 15.11 штиль 0 н/о н/о -28.1 -30.8 78 -28 -28 1026.4 1008.9
18 15.11 ЮЗ 1 н/о н/о -27.7 -30.2 79 -32 -32 опасность
обморожения
1025.3 1007.9
21 15.11 штиль 0 50 км ясно -29.4 -31.8 80 -29 -29 1023.9 1007.7 -29.4 25
00 16.11 штиль 0 50 км 4/0
[Ci fib]
-30.2 -32.6 79 -30 -30 1022.4 1006.0
03 16.11 штиль 0 50 км 4/0
[Ci fib]
-26.0 -27.8 85 -26 -26 1021.1 1005.0
06 16.11 ЮЗ 1 50 км 6/0
[Ac trans Ci fib]
-24.0 -25.9 84 -27 -27 1019.6 1003.6
09 16.11 штиль 0 50 км 10/0
[As op]
-22.8 -24.7 84 -23 -23 1018.6 1002.8 -22.7
12 16.11 З 1 н/о н/о -22.1 -24.3 82 -25 -25 1018.5 1001.6 -22.1
15 16.11 З 1 н/о н/о -21.6 -23.8 82 -25 -25 1018.0 1001.2
18 16.11 З 1 н/о н/о -21.2 -23.4 82 -24 -24 1018.3 1001.4
21 16.11 ЮЗ 1 50 км {снег} 10/0
[As op]
-20.7 -22.6 85 -24 -24 1018.0 1002.4 -22.7 0.8 26
00 17.11 З 1 50 км {снег} 10/0
[As op]
-20.5 -22.4 85 -24 -24 1018.2 1002.6
03 17.11 ЮЗ 1 50 км 10/0
[Ac und]
-19.4 -22.0 80 -22 -22 1018.3 1002.7
06 17.11 ЮЗ 1 50 км 10/0
[As op]
-18.0 -20.6 80 -21 -21 1018.4 1002.9
09 17.11 З 1 50 км 10/0
[As op]
-17.5 -20.6 100 -20 -20 1018.5 1003.0 -17.4
12 17.11 СВ 1 н/о н/о -19.0 -20.9 85 -22 -22 1019.1 1002.3 -17.0
15 17.11 С 1 н/о н/о -18.6 -20.4 86 -21 -21 1019.1 1002.4
21 17.11 С 1 50 км 10/0
[As op]
-20.5 -22.4 85 -24 -24 1019.1 1003.4 -21.0 26
00 18.11 СЗ 1 50 км 10/0
[As op]
-21.0 -22.9 85 -24 -24 1019.3 1003.6
03 18.11 штиль 0 10 км слабый снег 10/0
[As op]
-20.5 -22.4 85 -21 -20 1018.9 1003.2
06 18.11 С 1 50 км {снег} 10/0
[As op]
-20.0 -22.6 80 -23 -23 1018.5 1002.9
09 18.11 штиль 0 50 км 10/0
[As op]
-21.5 -24.0 80 -22 -22 1019.4 1003.7 -19.9 0.2
12 18.11 СЗ 1 н/о н/о -22.3 -24.6 81 -26 -26 1020.1 1003.1 -20.3
15 18.11 З 1 н/о н/о -22.7 -25.2 80 -26 -26 1020.1 1003.1
18 18.11 штиль 0 н/о н/о -22.6 -25.0 81 -23 -23 1020.2 1003.2
21 18.11 штиль 0 10 км слабый снег 10/0
[As op]
-22.1 -24.0 84 -22 -22 1014.9 999.1 -22.1 0.4 26
00 19.11 З 1 10 км слабый снег 10/0
[As op]
-21.9 -23.8 85 -25 -25 1019.3 1003.6
03 19.11 ЮЗ 1 50 км {снег} 10/0
[As op]
-21.4 -23.2 85 -25 -25 1020.2 1004.5
06 19.11 штиль 0 50 км 10/0
[As op]
-21.3 -23.2 85 -21 -21 1019.4 1003.7
09 19.11 З 1 50 км 10/0
[As op]
-22.6 -24.4 85 -26 -26 1019.9 1004.1 -21.2 0.5
12 19.11 ЮЗ 1 н/о н/о -23.7 -26.0 81 -27 -27 1020.4 1003.3 -20.9
15 19.11 З 1 н/о н/о -24.4 -26.8 80 -28 -28 1020.2 1003.1

 

Местоположение метеостанции Крест-Хальджай (Якутия, Россия): широта 62.82 долгота 134.40 высота над уровнем моря 115 м.

В архиве по умолчанию представлена погода в Крест-Хальджае за последнюю неделю. Архивные данные за месяц целиком и за предыдущие месяцы, начиная с января 2011 года, Вы можете получить, выбрав интересующий диапазон дат из раскрывающегося списка и нажав кнопку "Ввод!".


*Определитесь, кто Вы:
робот инопланетянин человек

Внимание! Время в таблицах - всемирное. Для получения местного времени необходимо прибавить поправку, которая в Крест-Хальджае равна 9 ч.

Смотрите также архив погоды в соседних городах и на ближайших метеорологических станциях:

Погода в Ытык-Кюёле (Якутия, Россия) (68 км)
Погода в Охотском Перевозе (Якутия, Россия) (120 км)
Погода в Теплом Ключе (Якутия, Россия) (122 км)
Погода в Чурапче (Якутия, Россия) (128 км)
Погода в Верхоянском Перевозе (Якутия, Россия) (133 км)
Погода в Томпо (Якутия, Россия) (144 км)
Погода в Сеген-Кюели (Якутия, Россия) (243 км)
Погода в Намцах (Якутия, Россия) (244 км)
Погода в Амге (Якутия, Россия) (251 км)
Погода в Батамае (Якутия, Россия) (263 км)

Пояснения к столбцам:

Ветер - указаны скорость ветра в м/с - средняя за 10 мин, порывы в срок и между сроками (в фигурных скобках) и направление, откуда дует ветер: С - северный, СВ - северо-восточный, В - восточный, ЮВ - юго-восточный, Ю - южный, ЮЗ - юго-западный, З - западный, СЗ - северо-западный.
Видимость - горизонтальная дальность видимости в метрах или километрах. При видимости от 1 до 10 км при отсутствии осадков обычно наблюдается дымка, при ухудшении видимости до 1 км и менее - туман. В сухую погоду видимость может ухудшаться дымом, пылью или мглою.
Явления - указаны атмосферные явления, наблюдавшиеся в срок или в последний час перед сроком; фигурными скобками обозначены явления, наблюдавшиеся между сроками (за 1-3 часа до срока); квадратными скобками обозначены град или гололедные отложения с указанием их диаметра в мм.
Облачность - указаны через наклонную черту общая и нижняя облачность в баллах и высота нижней границы облаков в метрах; квадратными скобками обозначены формы облаков: Ci - перистые, Cs - перисто-слоистые, Cc - перисто-кучевые, Ac - высококучевые, As - высокослоистые, Sc - слоисто-кучевые, Ns - слоисто-дождевые, Cu - кучевые, Cb - кучево-дождевые. Подробнее классификацию облаков см. в Атласе облаков (PDF).
T - Температура воздуха - температура, измеренная на высоте 2 м над землей.
Td - Температура точки росы - температура, при понижении до которой содержащийся в воздухе водяной пар достигнет насыщения.
f - Относительная влажность воздуха - влажноcть воздуха, измеренная на высоте 2 м над землей.
Te - Эффективная температура - температура, которую ощущает одетый по сезону человек в тени. Характеристика душности погоды. При расчете учитывается влияние влажности воздуха и скорости ветра на теплоощущения человека.
Tes - Эффективная температура на солнце - температура, которую ощущает человек, с поправкой на солнечный нагрев. Характеристика знойности погоды. Зависит от высоты солнца над горизонтом, облачности и скорости ветра. Ночью, в пасмурную погоду, а также при ветре 12 м/с и более поправка равна нулю.
P - Атмосферное давление - приведенное к уровню моря атмосферное давление.
Po - Атмосферное давление - измеренное на уровне метеостанции атмосферное давление.
Tmin - Минимальная температура - минимум температуры воздуха на высоте 2 м над землей.
Tmax - Максимальная температура - максимум температуры воздуха на высоте 2 м над землей.
R - Количество осадков - Количество выпавших осадков за период времени, мм. При наведении курсора мыши на число - период времени, за который выпало указанное количество осадков.
R24 - Количество осадков - Количество выпавших осадков за 24 часа, мм.
S - Снежный покров - Высота снежного покрова, см. При наведении курсора мыши на число - состояние снежного покрова и степень покрытия местности в баллах.